Regional Weather Roundup
Issued by NWS

Home | Current Version | Previous Version | Graphics & Text | Print | Product List | Glossary On
Versions: 1 2 3 4 5 6 7 8 9 10 11 12 13 14 15 16 17 18 19 20 21 22 23 24 25 26 27 28 29 30 31 32 33 34 35 36 37 38 39 40 41 42 43 44 45 46 47 48 49 50
000
ASUS43 KTOP 281808
RWRKS

WEATHER ROUNDUP FOR KANSAS
NATIONAL WEATHER SERVICE GOODLAND KS
1200 PM CST FRI NOV 28 2014

NOTE:  "FAIR" INDICATES FEW OR NO CLOUDS BELOW 12,000 FEET WITH NO
SIGNIFICANT WEATHER AND/OR OBSTRUCTIONS TO VISIBILITY.

KSZ001>006-013>018-027>032-041>047-281900-
NORTHWEST KANSAS

CITY           SKY/WX    TMP DP  RH WIND       PRES   REMARKS
GOODLAND       SUNNY     73  19  13 W7        29.86F
6HR MIN TEMP:  37; 6HR MAX TEMP:  74;

HAYS           SUNNY     64  32  29 SW13      29.85F
HILL CITY      SUNNY     71  26  18 SW12      29.83F
6HR MIN TEMP:  29; 6HR MAX TEMP:  71;

RUSSELL        SUNNY     61  31  32 SW14      29.82F
6HR MIN TEMP:  32; 6HR MAX TEMP:  61;

$$

KSZ061>065-074>080-084>089-281900-
SOUTHWEST KANSAS

CITY           SKY/WX    TMP DP  RH WIND       PRES   REMARKS
DODGE CITY     SUNNY     67  24  19 SW13      29.88F
6HR MIN TEMP:  32; 6HR MAX TEMP:  67;

ELKHART          N/A     67  25  20 S7          N/A
GARDEN CITY    SUNNY     65  23  20 W17       29.89F
6HR MIN TEMP:  29; 6HR MAX TEMP:  65;

GREAT BEND     SUNNY     61  34  36 SW8       29.86F
LIBERAL        SUNNY     70  28  21 SW12      29.93F
PRATT          MOSUNNY   57  32  38 S10       29.88F
$$

KSZ066>073-081>083-090>101-281900-
SOUTHEAST KANSAS

CITY           SKY/WX    TMP DP  RH WIND       PRES   REMARKS
CHANUTE        SUNNY     55  32  41 S26G33    29.94F
6HR MIN TEMP:  37; 6HR MAX TEMP:  55;

COFFEYVILLE    SUNNY     57  33  40 S21G30    29.98F
6HR MIN TEMP:  38; 6HR MAX TEMP:  57;

HUTCHINSON     MOSUNNY   60  33  36 S16       29.87F
6HR MIN TEMP:  32; 6HR MAX TEMP:  60;

MEDICINE LODGE   N/A     53  33  46 S10       29.89F
NEWTON         SUNNY     55  30  38 S20       29.89F
PARSONS        SUNNY     57  33  40 S16G25    29.98F
6HR MIN TEMP:  38; 6HR MAX TEMP:  57;

WICHITA INTL   MOSUNNY   56  33  42 S17       29.90F
6HR MIN TEMP:  35; 6HR MAX TEMP:  56;

WICHITA JABRA  SUNNY     55  33  43 S17G28    29.90F
6HR MIN TEMP:  38; 6HR MAX TEMP:  55;

WICHITA MCCONL SUNNY     55  32  40 S16       29.91F
WINFIELD       SUNNY     58  35  42 S16       29.95F
6HR MIN TEMP:  37; 6HR MAX TEMP:  58;

$$

KSZ007>012-019>026-033>040-048>060-102>105-281900-
NORTHEAST KANSAS

CITY           SKY/WX    TMP DP  RH WIND       PRES   REMARKS
CONCORDIA      MOSUNNY   54  30  40 S7        29.81F
6HR MIN TEMP:  33; 6HR MAX TEMP:  54;

EMPORIA        SUNNY     60  32  34 S16       29.88F
6HR MIN TEMP:  30; 6HR MAX TEMP:  60;

LAWRENCE       SUNNY     53  30  41 SW16      29.90F
6HR MIN TEMP:  33; 6HR MAX TEMP:  53;

MANHATTAN      SUNNY     57  31  37 SW13      29.85F
6HR MIN TEMP:  30; 6HR MAX TEMP:  57;

MARYSVILLE     SUNNY     52  32  46 SW10      29.82F
OLATHE IND     SUNNY     52  31  44 S20G25    29.90F
6HR MIN TEMP:  32; 6HR MAX TEMP:  52;

OLATHE EXE     SUNNY     52  31  44 SW16G22   29.90F
6HR MIN TEMP:  34; 6HR MAX TEMP:  52;

SALINA         SUNNY     59  32  36 S12       29.85F
6HR MIN TEMP:  34; 6HR MAX TEMP:  59;

TOPEKA BILLARD SUNNY     55  31  39 S10       29.89F
6HR MIN TEMP:  36; 6HR MAX TEMP:  55;

TOPEKA FORBES  SUNNY     56  31  38 SW14      29.88F
6HR MIN TEMP:  35; 6HR MAX TEMP:  56;

$$



USA.gov is the U.S. government's official web portal to all federal, state and local government web resources and services.